User: anonymous   Login
Location: Carri�res
(48.9069°N, 2.1792°E)
Time: 06:14:05
(UTC+00:00)
Language:

Cosmos 1726 Rocket - Orbit

View from above orbital plane
View from above orbital plane
View from above satellite
View from above satellite

Ground track
Ground track

The orbit data is extracted from the following two-line orbital elements,

1 16496U 86006B   21112.56064243  .00000115  00000-0  10815-4 0  9999
2 16496  82.5225 132.4287 0020758 109.2304   6.7510 14.84178289905791
Epoch (UTC): 22 April 2021 13:27:19
Eccentricity: 0.0020758
inclination: 82.5225°
perigee height: 601 km
apogee height: 630 km
right ascension of ascending node: 132.4287°
argument of perigee: 109.2304°
revolutions per day: 14.84178289
mean anomaly at epoch: 6.7510°
orbit number at epoch: 90579

The dashed part of the orbit path shows where the satellite is in the earth's shadow,  

DLR